EW2244 Weather Reports


Display with metric or nautical units.
time (UTC)temp
F
wind
direction
speed
MPH
gust
MPH
rain 1hr
in
rain 24hr
in
rain mn
in
humidity
%
barometer
mb
20260502151135 73 49 1.0 4.0 0.00 0.00 0.00 41 1021.6
20260502150140 73 225 0.0 6.0 0.00 0.00 0.00 40 1021.7
20260502140121 73 69 1.0 4.0 0.00 0.00 0.00 40 1022.5
20260502130132 72 30 2.0 5.0 0.00 0.00 0.00 45 1023.3
20260502123123 72 103 1.0 6.0 0.00 0.00 0.00 44 1023.7
20260502122128 71 49 1.0 5.0 0.00 0.00 0.00 46 1023.7
20260502121130 71 101 1.0 9.0 0.00 0.00 0.00 48 1023.9
20260502120130 71 136 2.0 7.0 0.00 0.00 0.00 43 1024.0
20260502115139 71 113 2.0 4.0 0.00 0.00 0.00 45 1024.2
20260502114122 70 101 2.0 7.0 0.00 0.00 0.00 46 1024.4
20260502113124 70 46 2.0 7.0 0.00 0.00 0.00 48 1024.4
20260502112126 70 137 2.0 6.0 0.00 0.00 0.00 46 1024.6
20260502111128 70 34 2.0 7.0 0.00 0.00 0.00 53 1024.8
20260502110150 70 56 1.0 5.0 0.00 0.00 0.00 50 1024.9
20260502105132 69 209 0.0 6.0 0.00 0.00 0.00 46 1025.1
20260502104135 69 133 3.0 8.0 0.00 0.00 0.00 46 1025.2
20260502103119 69 78 2.0 5.0 0.00 0.00 0.00 48 1025.2
20260502102126 69 105 1.0 8.0 0.00 0.00 0.00 47 1025.4
20260502101131 69 159 0.0 5.0 0.00 0.00 0.00 47 1025.6
20260502100155 68 343 1.0 8.0 0.00 0.00 0.00 48 1025.7
20260502091134 67 86 1.0 5.0 0.00 0.00 0.00 48 1026.2
20260502090122 67 139 2.0 5.0 0.00 0.00 0.00 51 1026.4
20260502071139 60 31 2.0 4.0 0.00 0.00 0.00 66 1026.8
20260502070121 59 30 1.0 5.0 0.00 0.00 0.00 67 1026.7
20260502065129 58 44 1.0 5.0 0.00 0.00 0.00 68 1026.8
20260502064129 58 40 2.0 5.0 0.00 0.00 0.00 70 1026.8
20260502063132 58 36 2.0 4.0 0.00 0.00 0.00 70 1026.8
20260502062136 57 38 0.0 2.0 0.00 0.00 0.00 71 1026.8
20260502061123 56 38 0.0 4.0 0.00 0.00 0.00 73 1026.7
20260502060126 55 38 0.0 2.0 0.00 0.00 0.00 75 1026.8
20260502055130 55 38 0.0 2.0 0.00 0.00 0.00 74 1026.8
20260502054132 55 26 0.0 2.0 0.00 0.00 0.00 72 1026.8
20260502053121 54 234 0.0 3.0 0.00 0.00 0.00 73 1026.8
20260502052125 54 80 0.0 2.0 0.00 0.00 0.00 75 1026.7
20260502051148 54 75 0.0 2.0 0.00 0.00 0.00 75 1026.7
20260502050127 53 76 0.0 2.0 0.00 0.00 0.00 76 1026.7
20260502045132 52 75 0.0 3.0 0.00 0.00 0.00 77 1026.7
20260502044200 52 44 1.0 2.0 0.00 0.00 0.00 77 1026.6
20260502043123 51 25 0.0 3.0 0.00 0.00 0.00 77 1026.6
20260502042127 51 42 0.0 3.0 0.00 0.00 0.00 77 1026.5
20260502041131 52 355 0.0 2.0 0.00 0.00 0.00 76 1026.5
20260502040140 52 46 1.0 3.0 0.00 0.00 0.00 75 1026.4
20260502035125 51 10 0.0 4.0 0.00 0.00 0.00 77 1026.4
20260502034129 51 236 1.0 2.0 0.00 0.00 0.00 77 1026.4
20260502033133 52 236 1.0 4.0 0.00 0.00 0.00 77 1026.4
20260502032140 51 225 1.0 4.0 0.00 0.00 0.00 78 1026.4
20260502031123 50 160 1.0 2.0 0.00 0.00 0.00 79 1026.4
20260502030127 50 159 0.0 3.0 0.00 0.00 0.00 79 1026.4
20260502025132 50 127 0.0 1.0 0.00 0.00 0.00 79 1026.4
20260502024120 50 127 0.0 2.0 0.00 0.00 0.00 79 1026.2
20260502023125 51 126 0.0 1.0 0.00 0.00 0.00 78 1026.2
20260502022149 51 126 0.0 1.0 0.00 0.00 0.00 78 1026.3
20260502021153 51 126 0.0 2.0 0.00 0.00 0.00 78 1026.3
20260502020120 51 63 0.0 2.0 0.00 0.00 0.00 78 1026.2
20260502015124 51 45 0.0 3.0 0.00 0.00 0.00 78 1026.1
20260502014128 50 252 0.0 3.0 0.00 0.00 0.00 80 1026.2
20260502013133 50 252 1.0 3.0 0.00 0.00 0.00 79 1026.1
20260502012120 50 252 1.0 2.0 0.00 0.00 0.00 79 1026.1
20260502011124 50 252 0.0 2.0 0.00 0.00 0.00 79 1026.1
20260502010127 51 252 1.0 2.0 0.00 0.00 0.00 78 1026.2
20260502005151 51 252 1.0 2.0 0.00 0.00 0.00 78 1026.2
20260502004137 51 252 2.0 4.0 0.00 0.00 0.00 77 1026.2
20260502003134 51 252 0.0 2.0 0.00 0.00 0.00 77 1026.2
20260502002134 51 252 1.0 2.0 0.00 0.00 0.00 76 1026.4
20260502001136 51 252 0.0 3.0 0.00 0.00 0.00 77 1026.4
20260502000159 51 252 0.0 2.0 0.00 0.00 0.00 77 1026.4
20260501235127 51 252 1.0 3.0 0.00 0.00 0.00 77 1026.4
20260501234128 51 253 1.0 3.0 0.00 0.00 0.00 78 1026.4
20260501233131 51 253 0.0 2.0 0.00 0.00 0.00 77 1026.4
20260501232155 52 253 0.0 2.0 0.00 0.00 0.00 76 1026.3
20260501231158 52 253 0.0 2.0 0.00 0.00 0.00 76 1026.4
20260501230125 52 253 1.0 2.0 0.00 0.00 0.00 75 1026.4
20260501225129 52 253 0.0 4.0 0.00 0.00 0.00 75 1026.4
20260501224135 52 253 0.0 2.0 0.00 0.00 0.00 75 1026.4
20260501223132 52 253 0.0 3.0 0.00 0.00 0.00 75 1026.5
20260501222139 53 253 0.0 1.0 0.00 0.00 0.00 74 1026.5
20260501221122 53 253 0.0 2.0 0.00 0.00 0.00 74 1026.4
20260501220127 53 253 0.0 1.0 0.00 0.00 0.00 73 1026.2
20260501215130 54 253 0.0 2.0 0.00 0.00 0.00 72 1026.2
20260501214138 54 253 0.0 1.0 0.00 0.00 0.00 72 1026.2
20260501213140 54 253 1.0 2.0 0.00 0.00 0.00 72 1026.1
20260501212123 54 253 0.0 1.0 0.00 0.00 0.00 71 1026.2
20260501211123 55 253 0.0 1.0 0.00 0.00 0.00 70 1026.2
20260501210130 55 253 0.0 1.0 0.00 0.00 0.00 69 1026.1
20260501205130 55 253 0.0 3.0 0.00 0.00 0.00 70 1026.2
20260501204126 54 253 0.0 1.0 0.00 0.00 0.00 72 1026.2
20260501203138 55 253 0.0 2.0 0.00 0.00 0.00 70 1026.1
20260501202158 56 253 0.0 1.0 0.00 0.00 0.00 66 1026.1
20260501201153 56 253 0.0 2.0 0.00 0.00 0.00 64 1026.0
20260501200128 56 253 0.0 2.0 0.00 0.00 0.00 66 1025.9
20260501195144 56 253 0.0 2.0 0.00 0.00 0.00 66 1025.8
20260501194141 56 253 0.0 2.0 0.00 0.00 0.00 66 1025.7
20260501193131 56 253 0.0 3.0 0.00 0.00 0.00 66 1025.6
20260501192132 56 253 2.0 3.0 0.00 0.00 0.00 66 1025.5
20260501191131 57 253 0.0 2.0 0.00 0.00 0.00 66 1025.4
20260501190125 57 253 0.0 2.0 0.00 0.00 0.00 65 1025.3
20260501185142 58 253 0.0 2.0 0.00 0.00 0.00 64 1025.2
20260501184139 59 253 1.0 2.0 0.00 0.00 0.00 62 1025.1
20260501183203 60 253 0.0 1.0 0.00 0.00 0.00 62 1025.0
20260501182157 61 253 0.0 3.0 0.00 0.00 0.00 60 1025.0
20260501181135 62 253 0.0 2.0 0.00 0.00 0.00 57 1024.9
20260501180136 63 253 1.0 2.0 0.00 0.00 0.00 53 1024.9
20260501175136 63 253 0.0 2.0 0.00 0.00 0.00 49 1024.9
20260501174202 64 183 1.0 3.0 0.00 0.00 0.00 48 1024.9
20260501173139 64 179 0.0 3.0 0.00 0.00 0.00 47 1024.8
20260501171140 65 115 0.0 4.0 0.00 0.00 0.00 45 1024.9
20260501170126 66 130 1.0 4.0 0.00 0.00 0.00 45 1024.9
20260501165147 67 71 1.0 3.0 0.00 0.00 0.00 43 1024.9
20260501164125 69 153 0.0 3.0 0.00 0.00 0.00 40 1024.9
20260501163144 69 111 1.0 4.0 0.00 0.00 0.00 40 1024.9
20260501162143 69 221 1.0 4.0 0.00 0.00 0.00 41 1025.0
20260501161150 69 176 1.0 3.0 0.00 0.00 0.00 40 1025.1
20260501160128 69 209 1.0 5.0 0.00 0.00 0.00 40 1025.1
20260501154127 70 209 1.0 7.0 0.00 0.00 0.00 39 1025.3
20260501153149 69 96 1.0 4.0 0.00 0.00 0.00 40 1025.4
20260501152129 69 89 1.0 3.0 0.00 0.00 0.00 42 1025.4